Weather History for KSLR - April, 2014

Change the Weather History Date:

Wednesday, April 2, 2014

  Actual Average (KGVT) Record (KGVT)
Temperature  
Mean Temperature 74 °F -  
Max Temperature 81 °F 69 °F 87 °F (2006)
Min Temperature 69 °F 53 °F 39 °F (2005)
Cooling Degree Days 10    
Growing Degree Days 24 (Base 50)    
Moisture  
Dew Point 65 °F    
Average Humidity 75    
Maximum Humidity 87    
Minimum Humidity 61    
Precipitation  
Precipitation 0.00 in - - ()
Sea Level Pressure  
Sea Level Pressure 29.84 in    
Wind  
Wind Speed 12 mph (SSE)    
Max Wind Speed 18 mph    
Max Gust Speed 25 mph    
Visibility 9 miles    
Events      
Averages and records for this station are not official NWS values.
T = Trace of Precipitation, MM = Missing Value Source: NWS Daily Summary

Daily Weather History Graph

Daily Weather History Graph

Search for Another Location

Airport or City:

Trip Planner

Search our weather history database for the weather conditions in past years. The results will help you decide how hot, cold, wet, or windy it might be!

Date:

Astronomy

Apr. 02, 2014 Rise Set
Actual Time 7:08 AM CDT 7:43 PM CDT
Civil Twilight 6:43 AM CDT 8:08 PM CDT
Nautical Twilight 6:14 AM CDT 8:37 PM CDT
Astronomical Twilight 5:44 AM CDT 9:07 PM CDT
Moon 9:02 AM CDT (4/2) 10:58 PM CDT (4/2)
Length of Visible Light 13h 24m
Length of Day
12h 34m
Waxing Crescent, 10% of the Moon is Illuminated
Apr 2
Waxing Crescent
Apr 7
First Quarter
Apr 15
Full
Apr 22
Last Quarter
Apr 29
New

Hourly Weather History & Observations

Time (CDT) Temp. Heat Index Dew Point Humidity Pressure Visibility Wind Dir Wind Speed Gust Speed Precip Events Conditions
12:15 AM 70.7 °F - 64.0 °F 79% 29.91 in 10.0 mi SSE 8.1 mph - N/A   Clear
12:35 AM 70.7 °F - 64.4 °F 80% 29.90 in 10.0 mi SSE 12.7 mph 17.3 mph N/A   Scattered Clouds
12:55 AM 70.7 °F - 64.4 °F 80% 29.89 in 10.0 mi South 12.7 mph 18.4 mph N/A   Clear
1:15 AM 70.3 °F - 64.4 °F 81% 29.89 in 10.0 mi South 13.8 mph 20.7 mph N/A   Clear
1:35 AM 70.2 °F - 64.4 °F 82% 29.88 in 10.0 mi South 12.7 mph 19.6 mph N/A   Clear
1:55 AM 70.7 °F - 64.4 °F 80% 29.88 in 10.0 mi South 11.5 mph 21.9 mph N/A   Mostly Cloudy
2:15 AM 70.5 °F - 64.4 °F 81% 29.88 in 10.0 mi South 11.5 mph 18.4 mph N/A   Mostly Cloudy
2:35 AM 70.2 °F - 64.4 °F 82% 29.88 in 10.0 mi South 11.5 mph 19.6 mph N/A   Scattered Clouds
2:55 AM 70.0 °F - 64.0 °F 81% 29.88 in 10.0 mi South 10.4 mph - N/A   Scattered Clouds
3:15 AM 70.0 °F - 63.9 °F 81% 29.88 in 10.0 mi South 10.4 mph - N/A   Clear
3:35 AM 69.8 °F - 63.9 °F 81% 29.87 in 10.0 mi South 12.7 mph 16.1 mph N/A   Mostly Cloudy
3:55 AM 69.8 °F - 63.9 °F 81% 29.87 in 10.0 mi South 10.4 mph - N/A   Overcast
4:15 AM 69.8 °F - 63.7 °F 81% 29.87 in 10.0 mi South 9.2 mph 17.3 mph N/A   Overcast
4:35 AM 69.6 °F - 63.7 °F 81% 29.87 in 10.0 mi South 16.1 mph 19.6 mph N/A   Overcast
4:55 AM 69.8 °F - 63.7 °F 81% 29.87 in 10.0 mi South 15.0 mph 18.4 mph N/A   Overcast
5:15 AM 69.4 °F - 63.5 °F 81% 29.86 in 10.0 mi South 12.7 mph 19.6 mph N/A   Mostly Cloudy
5:35 AM 69.4 °F - 63.7 °F 82% 29.87 in 10.0 mi South 9.2 mph - N/A   Overcast
5:55 AM 69.4 °F - 63.7 °F 82% 29.87 in 10.0 mi South 9.2 mph - N/A   Overcast
6:15 AM 69.4 °F - 63.9 °F 82% 29.87 in 10.0 mi South 9.2 mph - N/A   Overcast
7:35 AM 69.6 °F - 64.9 °F 85% 29.88 in 7.0 mi South 11.5 mph 16.1 mph N/A   Overcast
7:55 AM 69.8 °F - 65.3 °F 86% 29.89 in 7.0 mi South 10.4 mph 18.4 mph N/A   Overcast
8:15 AM 69.8 °F - 65.5 °F 86% 29.89 in 5.0 mi South 10.4 mph 18.4 mph N/A   Overcast
8:35 AM 70.0 °F - 65.8 °F 87% 29.89 in 7.0 mi South 9.2 mph - N/A   Overcast
8:55 AM 70.2 °F - 65.8 °F 86% 29.89 in 7.0 mi South 10.4 mph - N/A   Overcast
9:15 AM 70.3 °F - 65.8 °F 86% 29.90 in 7.0 mi South 9.2 mph - N/A   Overcast
9:35 AM 70.3 °F - 65.8 °F 86% 29.91 in 7.0 mi South 11.5 mph 16.1 mph N/A   Overcast
9:55 AM 70.7 °F - 66.0 °F 85% 29.91 in 7.0 mi SSE 8.1 mph - N/A   Overcast
10:15 AM 70.9 °F - 66.2 °F 85% 29.91 in 7.0 mi South 8.1 mph - N/A   Overcast
10:35 AM 71.1 °F - 66.2 °F 85% 29.91 in 7.0 mi SSE 10.4 mph - N/A   Overcast
10:55 AM 72.0 °F - 66.2 °F 82% 29.91 in 7.0 mi South 8.1 mph - N/A   Mostly Cloudy
11:35 AM 72.7 °F - 66.6 °F 81% 29.90 in 10.0 mi South 10.4 mph - N/A   Mostly Cloudy
11:55 AM 73.8 °F - 66.6 °F 78% 29.89 in 10.0 mi South 12.7 mph 17.3 mph N/A   Overcast
12:15 PM 72.9 °F - 67.3 °F 83% 29.89 in 7.0 mi South 10.4 mph 19.6 mph N/A   Mostly Cloudy
12:55 PM 74.3 °F - 67.3 °F 79% 29.87 in 10.0 mi South 9.2 mph - N/A   Mostly Cloudy
1:15 PM 74.7 °F - 66.7 °F 76% 29.87 in 10.0 mi South 11.5 mph 17.3 mph N/A   Mostly Cloudy
1:35 PM 76.5 °F - 67.5 °F 74% 29.86 in 10.0 mi South 11.5 mph - N/A   Mostly Cloudy
1:55 PM 77.5 °F - 66.9 °F 70% 29.85 in 10.0 mi South 13.8 mph 23.0 mph N/A   Scattered Clouds
2:15 PM 77.2 °F - 66.9 °F 71% 29.84 in 10.0 mi SSE 13.8 mph - N/A   Mostly Cloudy
2:35 PM 79.2 °F - 67.3 °F 67% 29.83 in 10.0 mi South 13.8 mph 17.3 mph N/A   Mostly Cloudy
2:55 PM 80.8 °F 83.2 °F 67.1 °F 63% 29.82 in 10.0 mi South 12.7 mph 17.3 mph N/A   Scattered Clouds
3:15 PM 79.0 °F - 66.2 °F 65% 29.81 in 10.0 mi South 13.8 mph 19.6 mph N/A   Mostly Cloudy
3:35 PM 79.9 °F - 66.6 °F 64% 29.81 in 10.0 mi South 12.7 mph 23.0 mph N/A   Scattered Clouds
3:55 PM 79.3 °F - 66.4 °F 64% 29.80 in 10.0 mi South 15.0 mph 24.2 mph N/A   Scattered Clouds
4:15 PM 80.2 °F 82.6 °F 67.1 °F 64% 29.79 in 10.0 mi SSE 13.8 mph - N/A   Mostly Cloudy
4:35 PM 80.8 °F 83.1 °F 66.6 °F 62% 29.78 in 10.0 mi SSE 16.1 mph 25.3 mph N/A   Scattered Clouds
4:55 PM 79.7 °F - 66.2 °F 63% 29.78 in 10.0 mi South 10.4 mph 19.6 mph N/A   Scattered Clouds
5:15 PM 80.4 °F 82.4 °F 66.0 °F 61% 29.78 in 10.0 mi South 17.3 mph 25.3 mph N/A   Scattered Clouds
5:35 PM 79.7 °F - 65.8 °F 62% 29.77 in 10.0 mi South 17.3 mph 23.0 mph N/A   Clear
5:55 PM 79.0 °F - 65.5 °F 63% 29.77 in 10.0 mi SSE 18.4 mph 23.0 mph N/A   Clear
6:15 PM 78.8 °F - 65.5 °F 64% 29.77 in 10.0 mi SSE 10.4 mph 19.6 mph N/A   Scattered Clouds
6:35 PM 78.8 °F - 65.3 °F 63% 29.77 in 10.0 mi South 13.8 mph 20.7 mph N/A   Scattered Clouds
6:55 PM 78.6 °F - 64.9 °F 63% 29.77 in 10.0 mi SSE 13.8 mph 20.7 mph N/A   Scattered Clouds
7:15 PM 78.3 °F - 64.4 °F 62% 29.77 in 10.0 mi SSE 15.0 mph 19.6 mph N/A   Scattered Clouds
7:35 PM 77.9 °F - 64.4 °F 63% 29.77 in 10.0 mi SSE 12.7 mph 18.4 mph N/A   Scattered Clouds
7:55 PM 77.0 °F - 64.4 °F 65% 29.76 in 10.0 mi SSE 9.2 mph - N/A   Scattered Clouds
8:15 PM 77.0 °F - 64.2 °F 65% 29.76 in 10.0 mi SSE 12.7 mph - N/A   Scattered Clouds
8:35 PM 77.0 °F - 64.2 °F 65% 29.76 in 10.0 mi SSE 12.7 mph 18.4 mph N/A   Mostly Cloudy
8:55 PM 76.3 °F - 64.4 °F 67% 29.76 in 10.0 mi SE 9.2 mph 19.6 mph N/A   Mostly Cloudy
9:15 PM 75.7 °F - 64.6 °F 68% 29.76 in 10.0 mi SSE 15.0 mph 23.0 mph N/A   Mostly Cloudy
9:35 PM 75.4 °F - 64.8 °F 69% 29.76 in 10.0 mi SSE 16.1 mph 23.0 mph N/A   Scattered Clouds
9:55 PM 75.2 °F - 64.8 °F 70% 29.76 in 10.0 mi SSE 16.1 mph 21.9 mph N/A   Scattered Clouds
10:15 PM 74.7 °F - 64.9 °F 72% 29.77 in 10.0 mi SSE 12.7 mph 21.9 mph N/A   Clear
10:35 PM 74.5 °F - 65.3 °F 73% 29.77 in 10.0 mi SSE 10.4 mph 19.6 mph N/A   Mostly Cloudy
10:55 PM 74.5 °F - 64.8 °F 72% 29.77 in 10.0 mi SSE 12.7 mph 21.9 mph N/A   Overcast
11:15 PM 74.5 °F - 64.6 °F 71% 29.79 in 10.0 mi South 16.1 mph 21.9 mph N/A   Overcast
11:35 PM 74.7 °F - 64.6 °F 71% 29.78 in 10.0 mi South 17.3 mph 23.0 mph N/A   Overcast
11:55 PM 74.7 °F - 65.3 °F 73% 29.78 in 10.0 mi South 13.8 mph 19.6 mph N/A   Overcast